Regional Weather Roundup
Issued by NWS Newport/Morehead, NC

Current Version | Previous Version | Graphics & Text | Print | Product List | Glossary On
Versions: 1 2 3 4 5 6 7 8 9 10 11 12 13 14 15 16 17 18 19 20 21 22 23 24 25 26 27 28 29 30 31 32 33 34 35 36 37 38 39 40 41 42 43 44 45 46 47 48 49 50
000 ASUS42 KMHX 230624 RWRMHX WEATHER ROUNDUP FOR EASTERN NORTH CAROLINA NATIONAL WEATHER SERVICE NEWPORT/MOREHEAD CITY NC 200 AM EDT SAT MAY 23 2015 NOTE: "FAIR" INDICATES FEW OR NO CLOUDS BELOW 12,000 FEET WITH NO SIGNIFICANT WEATHER AND/OR OBSTRUCTIONS TO VISIBILITY NCZ015>017-031-032-045>047-102-103-230700- NORTH COAST CITY SKY/WX TMP DP RH WIND PRES REMARKS EDENTON CLEAR 64 54 69 SW5 30.27S ELIZABETH CITY CLEAR 59 55 87 SW5 30.26F KITTY HAWK CLEAR 63 55 76 SW5 30.25F MANTEO CLEAR 64 56 76 SW8 30.27S $$ NCZ045>047-081-094-103-104-230700- CENTRAL COAST CITY SKY/WX TMP DP RH WIND PRES REMARKS FRISCO CLEAR 49 45 86 SW3 30.27F SWANQUARTER N/A 57 N/A N/A W2 30.24S $$ NCZ095-097-098-100-101-230700- SOUTHERN COAST CITY SKY/WX TMP DP RH WIND PRES REMARKS BEAUFORT CLEAR 56 55 97 CALM 30.28S CEDAR ISLAND N/A 59 N/A N/A S2 30.33S JACKSONVILLE CLEAR 56 53 90 CALM 30.27F PINEY ISLAND CLEAR N/A N/A N/A S3 30.28S WILMINGTON CLEAR 58 56 93 CALM 30.28S $$ NCZ011>013-027>030-043-044-078>080-089-090>093-098-230700- COASTAL PLAIN CITY SKY/WX TMP DP RH WIND PRES REMARKS AHOSKIE CLEAR 50 48 93 CALM 30.27S CLINTON CLEAR 55 54 97 CALM 30.29S ELIZABETHTOWN CLEAR 55 52 87 CALM 30.28S GOLDSBORO CLEAR 56 52 89 CALM 30.26F GREENVILLE CLEAR 54 54 100 CALM 30.28F HAVELOCK CLEAR 56 53 90 CALM 30.29S KENANSVILLE CLEAR 51 50 97 CALM 30.30S KINSTON CLEAR 51 50 97 CALM 30.29S NEW BERN CLEAR 55 52 89 S3 30.29S RICHLANDS CLEAR 52 46 82 CALM 30.29S ROCKY MOUNT CLEAR 53 51 93 CALM 30.28S WASHINGTON CLEAR 55 52 92 CALM 30.28F WHITEVILLE CLEAR 56 53 91 CALM 30.28S $$ AMZ130-135-150-152-154-156-158-170-250-252-270-ANZ085-086-088-633-658-670-230700- MARINE OBSERVATIONS STATION/POSITION TIME TEMP WIND PRES WAVE SWELL AIR SEA DIR/SP/G HT/PER HT/PER (UTC) (F) (DEG/KT/KT) (MB) (FT/S) (FT/S) CHESAPEAKE LIGHT 0600 65 240/ 15/ 16 1024.7 64 E VA BEACH 0550 62 60 230/ 12/ 12 1023.8 2/ 7 2/ 7 DUCK 0600 67 64 240/ 7/ 10 1023.7 2 E DUCK 0511 65 N/A 2/ 7 OREGON INLET 0600 67 71 230/ 8/ 10 1024.8 13E OREGON INLT 0600 62 N/A 3/ 9 HATTERAS CG 0600 65 73 200/ 2/ 3 1024.6 DIAMOND BUOY 0550 68 77 330/ 4/ 6 1025.3 3/ 7 3/ 7 CAPE LOOKOUT 0600 65 CALM 1025.2 BEAUFORT LAB 0600 64 73 80/ 1/ 1 1024.5 27 SE WRIGHTSVLE 0600 67 77 50/ 8/ 8 N/A 5 SE WRIGHTSVLE 0508 71 76 50/ 8/ 10 1025.2 225 S CAPE HAT 0550 72 74 60/ 16/ 17 1022.9 6/ 9 3/ 9 41 SE CHARLESTON 0550 73 75 40/ 14/ 17 1023.5 3/ 5 2/ 8 $$

USA.gov is the U.S. government's official web portal to all federal, state and local government web resources and services.